339  
SXUS55 KTWC 232015  
OSOTWC  
 
WEATHER ROUNDUP FOR SOUTHEAST ARIZONA  
NATIONAL WEATHER SERVICE TUCSON AZ  
115 PM MST TUE APR 23 2019  
 
AZZ504>506-514-232115-  
LOCATION SKY/WX TMP DP RH WIND PRES REMARKS  
TUCSON PTSUNNY 76 29 17 NW7 29.90F  
DAVIS-MONTHAN PTSUNNY 76 32 20 N3 29.88  
CHILDRENS PARK N/A N/A N/A 19 SE5 PIMA CO DEQ  
ALVERNON/22ND N/A 78 N/A N/A SE5 PIMA CO DEQ  
CHERRY/GLENN N/A N/A N/A N/A N/A PIMA CO DEQ  
TANGERINE N/A 77 N/A N/A S4 PIMA CO DEQ  
CONTL RANCH N/A 82 28 14 S4 PIMA CO DEQ  
GRANT/1ST N/A 79 30 17 SE2 PIMA CO DEQ  
CRAYCROFT/22ND N/A 78 31 18 SE5 PIMA CO DEQ  
GOLFLINKS/KOLB N/A N/A N/A N/A N/A PIMA CO DEQ  
AJO/12TH N/A 78 30 17 SE2 PIMA CO DEQ  
FAIRGROUNDS N/A 76 N/A N/A SE3 PIMA CO DEQ  
SAGUARO N/A 83 34 17 S6G12 *SABINO CYN  
SAN CARLOS N/A 76 36 23 S3 *SAN CARLOS  
GREEN VALLEY N/A 75 31 20 NE2 PIMA CO DEQ  
HORSE CAMP CYN N/A 74 29 19 S3G16 *ARAVAIPA CYN  
RINCON MTNS N/A 52 26 37 E4G14 *NR MANNING CAMP  

 
 
AZZ509>511-232115-  
LOCATION SKY/WX TMP DP RH WIND PRES REMARKS  
SAFFORD PTSUNNY 76 34 21 VRB5 29.89F  
STRAY HORSE N/A 52 31 44 NW3G10 *  
TRAIL CABIN N/A 62 34 35 NW3 *N OF GRANVILLE  
BLACK HILLS NOT AVBL  
DRY LAKE N/A 57 29 35 SW3 *NATANES MTNS  
NOON CREEK N/A 67 35 31 E3G10 *PINALENO MTNS  
COLUMBINE N/A 43 29 57 NW2 *PINALENO MTNS  
GUTHRIE N/A 63 33 33 E4G16 *SW OF GUTHRIE  

 
 
AZZ502-503-513-232115-  
LOCATION SKY/WX TMP DP RH WIND PRES REMARKS  
NOGALES CLOUDY 71 24 17 VRB6 29.94F  
SELLS N/A 80 35 20 NW10G17 *  
SASABE N/A 75 32 21 N7G13 *ALTAR VLY  
HOPKINS N/A 56 32 40 W5G15 *SANTA RITA MTNS  
CARR CYN N/A 68 14 12 NE4G10 *W OF HEREFORD  

 
 
AZZ507-508-512-232115-  
LOCATION SKY/WX TMP DP RH WIND PRES REMARKS  
SIERRA VISTA PTSUNNY 70 16 12 S5 29.97  
DOUGLAS PTSUNNY N/A N/A N/A MISG 29.92F  
EMPIRE MTNS NOT AVBL  
MULESHOE RANCH N/A 70 33 26 SE7G11 *PRESERVE  
HEADQUARTERS N/A 63 31 30 E5G17 *CHIRICAHUA MTNS  

 
   
............................NOTES..........................
 
 
THIS IS AN AUTOMATED COLLECTIVE WITH MINIMAL QUALITY CONTROL.  
PIMA CO DEQ SITES HAVE NONSTANDARD WIND SENSOR HEIGHTS.  
PIMA CO DEQ SITES DO NOT REPORT WIND GUSTS.  
* INDICATES WIND SENSORS LOCATED AT 20 FEET INSTEAD OF 33 FEET.   
.............................KEY...........................
 
 
SKY/WX - SKY CONDITION/WEATHER  
TMP - TEMPERATURE IN FAHRENHEIT  
DP - DEWPOINT IN FAHRENHEIT  
RH - RELATIVE HUMIDITY IN PERCENT  
WIND - DIRECTION AND SPEED IN MILES PER HOUR (MPH)  
VRB - VARIABLE WIND DIRECTION  
PRES - MEAN SEA LEVEL PRESSURE IN INCHES OF MERCURY  
F - FALLING PRESSURE R - RISING PRESSURE  
S - STEADY PRESSURE  
VSB - VISIBILITY IN MILES  
HX - HEAT INDEX IN FAHRENHEIT  
WCI - WIND CHILL INDEX IN FAHRENHEIT  
N/A - NOT AVAILABLE  
AFB - AIR FORCE BASE  
DAVIS-MONTHAN IS DAVIS-MONTHAN AIR FORCE BASE  
CYN - CANYON  
MTNS - MOUNTAINS  
NCA - NATIONAL CONSERVATION AREA  
NR - NEAR  
VLY - VALLEY  
CONTL - CONTINENTAL  
PIMA CO DEQ - PIMA COUNTY DEPT OF ENVIRONMENTAL QUALITY  
 
CLICK HERE TO GO TO PREVIOUS BULLETINS.

The Nexlab AZ Page Main Text Page